Location: ????????
(60.4333°N, 46.4710°E)
Time: 18:09:53
(UTC+00:00)

SMAP - Pass Details

Date: 25 November 2020
Orbit: 681 x 683 km, 98.1° (Epoch: 17 January)

Event Time Altitude Azimuth Distance (km) Brightness Sun altitude
Rises 13:22:29 0° 148° (SSE) 3,043 6.4 -8.9°
Reaches altitude 10° 13:24:44 10° 145° (SE) 2,131 5.5 -9.2°
Maximum altitude 13:29:20 61° 66° (ENE) 779 3.1 -9.7°
Drops below altitude 10° 13:33:57 10° 347° (NNW) 2,145 5.5 -10.2°
Sets 13:36:13 0° 344° (NNW) 3,065 6.3 -10.4°
